Date,TemperatureHighF,TemperatureAvgF,TemperatureLowF,DewpointHighF,DewpointAvgF,DewpointLowF,HumidityHigh,HumidityAvg,HumidityLow,PressureMaxIn,PressureMinIn,WindSpeedMaxMPH,WindSpeedAvgMPH,GustSpeedMaxMPH,PrecipitationSumIn
2013-1-1,44,38,33,43,34,23,98,87,64,30.43,30.28,3,1,8,0.25
2013-1-2,43,38,34,41,35,31,98,90,71,30.43,30.26,8,3,23,0.14
2013-1-3,42,35,29,34,29,24,95,79,57,30.59,30.40,8,3,16,0.01
2013-1-4,45,32,23,24,20,17,83,63,37,30.66,30.57,8,2,23,0.00
2013-1-5,51,35,20,29,19,12,89,57,21,30.69,30.52,3,2,8,0.00
2013-1-6,49,39,34,35,31,26,94,74,54,30.55,30.40,6,3,23,0.01
2013-1-7,57,40,27,30,22,18,83,52,23,30.68,30.52,8,4,16,0.01
2013-1-8,61,41,27,38,29,21,91,63,35,30.73,30.60,7,3,20,0.00
2013-1-9,51,44,37,46,41,35,96,90,80,30.79,30.66,5,2,8,0.00
2013-1-10,66,54,43,49,46,42,99,77,54,30.80,30.62,9,4,21,0.00
2013-1-11,64,54,48,55,50,43,99,89,62,30.62,30.43,12,5,30,0.01
2013-1-12,78,62,53,59,54,51,99,80,46,30.51,30.40,8,4,24,0.01
2013-1-13,72,63,58,55,51,48,84,66,44,30.43,30.33,10,6,21,0.00
2013-1-14,60,51,42,58,51,42,99,99,84,30.54,30.36,7,3,19,2.35
2013-1-15,51,47,42,51,47,42,99,99,99,30.50,30.31,4,2,11,1.20
2013-1-16,60,51,46,54,50,46,99,95,76,30.33,30.25,4,2,21,0.41
2013-1-17,47,40,32,47,39,31,99,98,96,30.53,30.16,14,4,28,1.48
2013-1-18,52,35,26,32,26,19,97,74,27,30.80,30.53,6,3,17,0.13
2013-1-19,61,38,25,29,25,16,97,68,18,30.75,30.48,3,2,9,0.01
2013-1-20,59,41,27,32,27,23,96,63,33,30.48,30.38,10,2,24,0.00
2013-1-21,53,35,24,29,21,6,95,61,27,30.42,30.31,10,4,33,0.00
2013-1-22,36,26,18,8,-1,-9,50,33,14,30.53,30.37,15,4,29,0.00
2013-1-23,50,32,23,21,9,-4,68,39,29,30.59,30.37,4,2,16,0.00
2013-1-24,44,34,22,29,12,-2,65,42,19,30.66,30.32,17,7,42,0.00
2013-1-25,38,28,22,37,17,0,98,67,34,30.67,30.35,10,5,26,0.13
2013-1-26,52,37,28,36,28,23,97,72,34,30.63,30.40,9,3,18,0.14
2013-1-27,47,34,23,28,25,21,95,72,45,30.75,30.63,8,4,19,0.01
2013-1-28,70,48,32,43,36,28,95,68,37,30.71,30.51,7,3,17,0.02
2013-1-29,77,56,40,53,45,39,97,71,34,30.55,30.32,10,4,26,0.01
2013-1-30,65,58,44,57,53,41,99,85,73,30.32,29.83,15,10,35,1.49
2013-1-31,44,34,29,43,19,14,97,55,39,30.29,29.85,13,6,40,0.37
2013-2-1,39,27,17,30,14,4,94,60,36,30.63,30.23,16,6,39,0.01
2013-2-2,38,27,16,31,18,7,97,71,33,30.64,30.32,4,2,9,0.03
2013-2-3,41,34,29,31,25,18,97,71,53,30.38,30.22,16,5,39,0.14
2013-2-4,57,33,23,24,19,17,82,60,27,30.40,30.25,7,2,18,0.06
2013-2-5,60,40,33,39,29,21,88,67,37,30.32,30.22,7,2,18,0.00
2013-2-6,65,44,33,33,25,17,94,55,18,30.53,30.32,7,3,23,0.00
2013-2-7,46,39,33,39,28,19,98,66,41,30.53,30.29,7,3,35,0.44
2013-2-8,53,41,33,43,36,25,98,84,46,30.49,30.22,10,4,23,0.23
2013-2-9,64,40,27,25,20,10,77,52,13,30.61,30.48,4,2,20,0.01
2013-2-10,50,43,34,41,24,15,95,51,24,30.63,30.41,15,7,37,0.20
2013-2-11,57,50,43,52,42,26,99,78,45,30.41,30.32,13,4,28,0.22
2013-2-12,57,43,34,37,24,19,95,49,26,30.45,30.23,7,3,14,0.04
2013-2-13,52,41,34,40,36,28,96,84,53,30.23,29.94,15,6,36,0.07
2013-2-14,58,41,32,28,24,22,77,55,26,30.35,30.22,7,3,24,0.01
2013-2-15,63,38,28,39,30,25,95,76,28,30.40,30.26,9,3,40,0.11
2013-2-16,36,30,24,29,22,9,91,72,42,30.36,30.19,16,5,29,0.03
2013-2-17,39,27,20,14,7,4,64,42,26,30.53,30.30,14,8,41,0.00
2013-2-18,55,36,18,20,14,7,70,46,25,30.62,30.42,15,5,28,0.00
2013-2-19,53,42,32,40,22,7,90,50,22,30.42,30.20,15,8,41,0.02
2013-2-20,47,35,27,12,6,0,46,31,15,30.47,30.36,8,4,28,0.01
2013-2-21,64,37,21,36,12,-5,90,43,6,30.50,30.33,7,2,18,0.10
2013-2-22,44,40,34,39,35,31,94,84,67,30.49,30.37,9,5,20,0.32
2013-2-23,57,46,39,49,42,36,99,86,68,30.37,30.15,5,2,46,0.22
2013-2-24,57,45,33,41,27,20,83,53,24,30.37,30.18,10,4,22,0.01
2013-2-25,50,38,27,24,22,19,82,57,32,30.40,30.27,10,5,26,0.00
2013-2-26,43,37,32,40,35,24,97,90,57,30.27,29.85,14,6,29,0.27
2013-2-27,61,42,35,38,30,26,95,63,33,30.10,29.94,6,4,23,0.03
2013-2-28,37,33,32,34,25,22,87,73,67,30.22,30.04,12,6,31,0.12
2013-3-1,39,33,31,32,29,26,96,86,72,30.24,30.19,6,3,20,0.01
2013-3-2,41,32,27,31,28,21,95,85,60,30.27,30.16,6,4,19,0.05
2013-3-3,33,27,23,21,18,14,83,67,50,30.33,30.25,8,4,23,0.01
2013-3-4,56,37,23,18,15,9,73,44,15,30.43,30.32,6,3,16,0.00
2013-3-5,46,38,32,46,34,17,99,85,40,30.35,29.98,19,4,42,0.95
2013-3-6,34,29,26,29,26,21,94,86,79,30.47,30.03,17,7,42,0.58
2013-3-7,37,32,28,28,26,24,90,78,63,30.60,30.47,8,4,22,0.06
2013-3-8,50,36,24,28,25,23,94,67,35,30.64,30.56,12,4,26,0.01
2013-3-9,67,45,24,27,23,16,98,52,15,30.63,30.49,7,3,15,0.00
2013-3-10,65,54,41,31,28,23,59,38,24,30.55,30.41,14,8,32,0.00
2013-3-11,54,52,50,51,45,31,98,80,42,30.44,30.15,16,10,39,0.66
2013-3-12,52,43,35,50,37,31,99,82,52,30.36,30.12,8,3,46,0.93
2013-3-13,43,35,29,31,24,16,94,65,40,30.50,30.34,12,5,30,0.03
2013-3-14,47,33,25,17,15,12,69,48,25,30.60,30.50,9,4,29,0.00
2013-3-15,68,48,30,38,27,12,78,47,23,30.51,30.25,10,3,34,0.00
2013-3-16,77,64,50,44,41,38,67,45,29,30.25,30.08,14,6,33,0.00
2013-3-17,77,64,54,47,43,35,69,50,22,30.28,30.15,7,3,46,0.00
2013-3-18,56,45,41,46,41,37,99,87,69,30.32,30.16,12,6,29,0.51
2013-3-19,58,46,37,44,29,9,99,58,25,30.40,30.18,12,5,30,0.43
2013-3-20,57,40,30,31,12,7,96,35,18,30.41,30.14,14,-38,48,0.01
2013-3-21,38,28,21,31,14,8,96,57,33,30.25,30.15,16,5,48,0.00
2013-3-22,48,33,18,21,13,7,85,48,18,30.32,30.25,7,2,14,0.00
2013-3-23,54,43,34,41,33,20,91,68,49,30.32,30.16,7,2,14,0.01
2013-3-24,50,43,39,44,40,38,98,91,76,30.18,29.79,12,6,27,0.99
2013-3-25,40,33,30,39,26,20,98,76,57,30.21,29.83,14,10,36,0.34
2013-3-26,35,31,28,29,27,24,94,86,78,30.50,30.21,9,6,31,0.11
2013-3-27,46,35,30,29,26,21,89,70,43,30.57,30.49,6,4,20,0.07
2013-3-28,51,45,34,22,20,17,59,37,30,30.60,30.53,14,7,27,0.00
2013-3-29,58,38,24,39,28,15,97,73,18,30.63,30.56,8,2,22,0.08
2013-3-30,63,48,37,45,39,35,99,74,37,30.56,30.36,6,2,60,0.29
2013-3-31,63,52,45,53,47,-100,99,88,61,30.36,30.18,7,2,23,0.68
2013-4-1,63,50,38,50,42,29,99,77,46,30.34,30.21,10,4,26,0.29
2013-4-2,59,45,35,29,23,17,68,44,20,30.48,30.33,10,4,26,0.01
2013-4-3,62,45,32,22,18,15,56,35,19,30.56,30.47,10,3,23,0.00
2013-4-4,46,38,33,36,29,12,98,75,27,30.55,30.28,9,4,24,0.77
2013-4-5,59,46,36,44,38,34,99,77,41,30.40,30.26,9,3,22,0.01
2013-4-6,68,51,31,39,32,26,100,58,21,30.53,30.40,12,4,25,0.01
2013-4-7,71,59,45,43,36,29,64,44,28,30.51,30.38,10,5,21,0.00
2013-4-8,78,62,43,49,45,40,90,57,33,30.48,30.34,11,5,22,0.00
2013-4-9,85,67,50,53,50,47,96,59,31,30.54,30.40,9,4,19,0.00
2013-4-10,87,71,51,55,51,47,95,54,26,30.46,30.28,12,4,23,0.00
2013-4-11,77,67,57,61,53,49,97,64,37,30.30,30.06,14,7,29,0.48
2013-4-12,69,60,49,60,50,37,99,72,36,30.25,29.98,9,4,27,1.23
2013-4-13,72,57,46,38,35,28,70,46,22,30.39,30.25,6,3,44,0.04
2013-4-14,69,54,38,47,37,33,90,58,27,30.42,30.29,12,6,32,0.00
2013-4-15,75,60,50,56,51,46,98,76,45,30.51,30.30,11,5,26,0.00
2013-4-16,81,67,54,58,54,48,96,66,32,30.60,30.48,8,5,22,0.00
2013-4-17,74,65,58,64,58,53,98,78,50,30.59,30.47,6,3,14,0.26
2013-4-18,75,66,59,59,56,52,90,71,44,30.47,30.28,17,8,37,0.01
2013-4-19,67,59,42,62,54,35,96,84,73,30.31,30.07,16,8,36,0.64
2013-4-20,58,46,33,35,30,26,84,55,31,30.60,30.31,9,4,25,0.01
2013-4-21,65,48,32,36,31,28,98,58,26,30.73,30.60,10,4,23,0.00
2013-4-22,69,53,39,40,36,32,81,54,28,30.70,30.48,7,4,22,0.00
2013-4-23,74,57,35,43,34,28,87,46,24,30.57,30.38,10,4,18,0.00
2013-4-24,73,58,44,58,48,42,94,71,41,30.47,30.32,11,5,29,0.01
2013-4-25,69,52,40,45,35,25,95,57,21,30.66,30.47,10,5,47,0.01
2013-4-26,69,52,32,49,33,29,97,56,25,30.73,30.61,7,3,67,0.03
2013-4-27,54,51,48,53,50,47,99,95,84,30.69,30.56,7,3,15,0.62
2013-4-28,52,50,47,52,47,-100,99,94,77,30.56,30.33,9,4,25,1.60
2013-4-29,76,59,50,55,52,49,99,81,45,30.38,30.26,7,3,17,0.27
2013-4-30,77,69,51,55,51,47,99,56,35,30.48,30.34,9,6,21,0.00
2013-5-1,72,61,52,55,52,47,98,74,49,30.60,30.48,8,5,69,0.00
2013-5-2,70,60,53,55,52,49,92,76,57,30.60,30.53,13,6,29,0.00
2013-5-3,65,58,51,52,48,44,94,74,50,30.56,30.39,12,6,52,0.00
2013-5-4,61,54,47,49,44,36,98,70,58,30.39,30.26,12,7,28,0.15
2013-5-5,51,49,46,50,48,45,99,97,92,30.30,30.14,5,3,13,2.07
2013-5-6,67,56,48,51,45,33,99,73,28,30.24,30.10,10,5,23,1.02
2013-5-7,72,54,41,51,46,41,99,79,41,30.30,30.19,9,3,34,0.01
2013-5-8,67,57,50,58,53,49,99,87,62,30.40,30.26,9,3,22,0.02
2013-5-9,78,61,49,59,52,47,100,77,35,30.46,30.38,7,3,20,0.02
2013-5-10,81,62,50,59,52,-100,99,74,40,30.46,30.31,7,3,26,0.01
2013-5-11,73,63,55,60,57,52,98,84,62,30.33,30.20,5,2,23,0.21
2013-5-12,62,54,43,51,39,-100,92,63,33,30.43,30.28,12,5,26,0.20
2013-5-13,64,50,38,35,31,27,77,52,28,30.52,30.43,11,4,33,0.00
2013-5-14,77,55,33,47,38,29,99,58,29,30.58,30.40,6,2,16,0.00
2013-5-15,86,67,46,55,50,45,98,61,28,30.48,30.34,4,2,21,0.00
2013-5-16,78,57,51,58,29,-100,97,67,41,30.42,30.34,6,2,16,0.00
2013-5-17,82,64,52,60,45,-100,99,71,39,30.48,30.37,8,3,46,0.00
2013-5-18,69,64,59,64,60,53,99,86,61,30.46,30.39,9,4,32,0.32
2013-5-19,78,66,60,66,63,60,99,90,63,30.45,30.37,7,3,24,0.20
2013-5-20,86,70,59,65,62,59,100,80,46,30.47,30.36,5,3,20,0.04
2013-5-21,87,71,59,66,61,57,100,76,39,30.43,30.29,8,2,18,0.00
2013-5-22,80,66,56,65,60,55,100,83,47,30.37,30.23,9,3,24,0.33
2013-5-23,80,67,59,65,59,53,100,79,39,30.33,30.22,8,3,52,0.38
2013-5-24,68,59,49,55,46,36,95,65,35,30.58,30.33,6,4,25,0.31
2013-5-25,74,56,37,43,39,36,100,59,27,30.67,30.55,8,3,65,0.00
2013-5-26,75,61,50,51,46,40,94,64,33,30.62,30.53,9,3,20,0.00
2013-5-27,81,65,46,58,52,46,100,68,42,30.61,30.46,8,4,19,0.00
2013-5-28,83,70,57,61,57,54,94,66,40,30.57,30.46,10,4,23,0.00
2013-5-29,86,72,56,62,57,50,100,65,30,30.59,30.48,11,4,23,0.00
2013-5-30,85,71,56,63,58,55,99,68,40,30.63,30.50,10,5,30,0.00
2013-5-31,83,72,57,64,58,55,99,65,40,30.58,30.45,10,5,23,0.00
2013-6-1,81,72,60,63,59,55,95,67,41,30.49,30.36,14,6,32,0.00
2013-6-2,70,66,65,66,63,-100,99,94,71,30.42,30.28,7,2,74,1.10
2013-6-3,81,70,62,66,63,59,100,79,49,30.35,30.25,7,2,21,0.01
2013-6-4,85,69,56,63,59,56,100,74,41,30.43,30.35,7,3,17,0.00
2013-6-5,80,69,58,65,62,58,100,80,58,30.46,30.31,10,4,51,0.31
2013-6-6,80,69,63,68,65,62,100,89,62,30.38,30.15,8,3,20,1.65
2013-6-7,81,69,62,69,65,61,100,90,60,30.22,30.07,5,2,18,1.41
2013-6-8,82,68,56,64,61,56,100,81,50,30.46,30.22,4,2,53,0.56
2013-6-9,80,67,57,69,63,57,100,89,61,30.52,30.39,10,3,24,0.92
2013-6-10,83,71,62,67,63,57,99,79,43,30.42,30.26,6,3,20,1.51
2013-6-11,85,72,61,65,62,60,100,75,47,30.41,30.32,4,2,24,0.10
2013-6-12,90,74,60,72,66,60,100,80,52,30.43,30.32,8,2,60,0.01
2013-6-13,87,71,62,72,65,62,100,86,47,30.34,30.12,9,3,46,0.18
2013-6-14,79,68,55,63,57,52,100,71,41,30.43,30.21,4,2,18,0.01
2013-6-15,84,68,50,62,56,50,100,71,41,30.52,30.41,4,2,14,0.00
2013-6-16,84,71,58,67,63,58,100,79,50,30.51,30.39,5,2,55,0.00
2013-6-17,83,71,64,69,67,64,100,87,58,30.43,30.32,4,2,40,0.01
2013-6-18,79,68,60,70,66,60,100,94,74,30.35,30.20,6,2,16,0.26
2013-6-19,85,69,57,65,61,57,100,80,50,30.49,30.32,4,2,13,0.01
2013-6-20,83,68,58,66,62,58,100,83,54,30.58,30.49,6,2,43,0.01
2013-6-22,87,79,66,61,59,55,76,52,38,30.62,30.47,5,2,14,0.00
2013-6-23,84,71,58,67,62,58,100,78,48,30.60,30.49,3,2,53,0.00
2013-6-24,87,73,62,72,66,62,100,81,46,30.60,30.47,5,2,13,0.00
2013-6-25,85,72,61,70,66,61,100,84,52,30.53,30.40,7,2,18,0.02
2013-6-26,86,73,62,72,67,62,100,83,60,30.44,30.30,4,2,53,0.14
2013-6-27,87,70,62,73,67,62,100,91,64,30.34,30.17,5,2,19,0.83
2013-6-28,87,72,63,71,67,63,100,86,51,30.22,30.04,6,2,59,1.01
2013-6-29,86,71,61,68,62,56,100,77,40,30.10,30.04,4,2,55,0.75
2013-6-30,87,69,55,65,61,55,100,78,39,30.19,30.09,3,2,15,0.01
2013-7-1,85,70,63,68,65,62,100,88,54,30.33,30.18,7,3,21,1.45
2013-7-2,83,72,63,69,66,63,100,83,53,30.48,30.32,10,4,52,1.39
2013-7-3,76,67,61,71,65,61,100,96,85,30.60,30.47,7,3,28,3.79
2013-7-4,74,66,61,72,65,61,100,97,81,30.59,30.53,8,4,33,2.23
2013-7-5,81,71,66,68,65,62,97,83,55,30.59,30.53,10,7,25,0.31
2013-7-6,83,70,65,70,66,64,100,88,64,30.58,30.47,11,5,33,0.63
2013-7-7,79,71,68,71,69,67,100,93,72,30.55,30.48,7,2,20,1.10
2013-7-8,88,73,66,71,67,64,100,86,48,30.57,30.48,3,1,12,0.05
2013-7-9,91,74,63,71,66,63,100,80,43,30.56,30.43,9,2,19,0.01
2013-7-10,90,71,64,72,64,-100,100,83,55,30.51,30.35,5,2,15,0.00
2013-7-11,83,72,65,71,68,65,100,87,61,30.37,30.26,4,2,14,0.01
2013-7-12,86,73,62,70,65,61,100,81,46,30.38,30.27,6,2,18,0.05
2013-7-13,81,69,59,68,64,59,100,84,63,30.48,30.38,8,3,21,0.16
2013-7-14,76,69,66,71,67,65,100,94,80,30.64,30.48,9,4,71,0.74
2013-7-15,87,72,64,70,66,63,100,83,51,30.70,30.63,7,3,38,0.05
2013-7-16,91,80,68,74,71,67,100,76,49,30.69,30.63,6,3,13,0.04
2013-7-17,89,73,66,75,70,66,100,91,59,30.69,30.56,4,2,16,0.04
2013-7-18,89,74,66,72,69,66,100,86,52,30.63,30.48,4,2,13,0.05
2013-7-19,90,76,65,73,68,65,100,81,50,30.52,30.35,6,2,19,0.01
2013-7-20,86,73,66,72,67,-100,100,85,61,30.44,30.33,5,2,15,0.00
2013-7-21,83,72,66,71,69,66,100,91,66,30.40,30.33,4,2,22,0.35
2013-7-22,88,73,65,71,67,65,100,86,56,30.39,30.20,5,2,72,0.57
2013-7-23,86,72,65,71,67,65,100,87,54,30.30,30.19,4,2,18,0.70
2013-7-24,86,73,65,72,68,65,100,87,53,30.26,30.19,6,2,79,0.20
2013-7-25,86,73,62,68,64,60,100,78,47,30.43,30.26,5,2,17,0.16
2013-7-26,84,70,57,67,63,57,100,82,53,30.47,30.36,8,3,67,0.00
2013-7-27,82,71,64,69,67,64,100,88,58,30.41,30.27,4,2,18,1.07
2013-7-28,84,72,63,67,64,61,100,80,50,30.43,30.30,4,2,18,0.65
2013-7-29,83,67,56,62,59,56,100,79,41,30.58,30.43,4,2,54,0.00
2013-7-30,84,67,53,65,59,53,100,80,49,30.61,30.53,3,2,11,0.00
2013-7-31,75,68,63,69,66,63,100,93,80,30.56,30.35,4,2,12,0.68
2013-8-1,84,72,64,74,68,64,100,87,58,30.37,30.30,4,2,16,0.38
2013-8-2,85,70,59,69,64,59,100,83,51,30.43,30.36,4,2,11,0.00
2013-8-3,84,72,60,68,65,60,100,81,53,30.43,30.37,4,2,14,0.00
2013-8-4,81,72,62,70,65,60,100,81,53,30.45,30.38,4,2,20,0.05
2013-8-5,87,71,59,68,63,58,100,78,51,30.46,30.34,6,2,50,0.01
2013-8-6,88,73,62,71,66,58,100,81,52,30.41,30.34,5,2,12,0.06
2013-8-7,80,71,66,71,68,66,99,91,74,30.43,30.39,8,4,21,0.14
2013-8-8,84,71,64,73,69,64,100,94,68,30.44,30.39,3,2,14,1.32
2013-8-9,86,73,66,73,70,66,100,91,60,30.48,30.40,6,2,16,0.18
2013-8-10,85,73,66,75,70,66,100,91,63,30.53,30.47,3,1,11,1.29
2013-8-11,88,73,66,72,69,66,100,88,58,30.55,30.44,5,2,48,1.14
2013-8-12,87,73,66,73,70,66,100,92,58,30.51,30.38,3,2,12,0.34
2013-8-13,83,72,68,74,67,-100,100,89,65,30.39,30.26,3,2,18,0.33
2013-8-14,77,68,57,68,62,57,100,83,56,30.44,30.30,5,2,15,0.01
2013-8-15,75,58,55,61,46,-100,100,80,61,30.50,30.42,8,4,18,0.00
2013-8-16,78,64,58,60,53,-100,97,75,54,30.50,30.42,5,3,15,0.00
2013-8-17,70,64,59,63,59,56,100,85,68,30.53,30.47,8,4,17,0.12
2013-8-18,78,65,61,69,61,-100,100,92,68,30.58,30.49,4,2,31,0.81
2013-8-19,75,64,63,69,56,-100,100,90,73,30.57,30.47,4,2,9,1.22
2013-8-20,83,70,64,71,65,-100,100,89,60,30.57,30.49,4,2,13,0.03
2013-8-21,77,70,65,71,68,65,100,91,72,30.61,30.51,5,2,13,0.00
2013-8-22,87,74,65,71,68,65,100,83,54,30.57,30.41,3,2,13,0.00
2013-8-23,84,70,63,70,66,63,100,90,60,30.48,30.39,6,2,81,0.00
2013-8-24,80,69,62,67,62,55,100,79,44,30.66,30.47,9,3,18,0.00
2013-8-25,82,66,53,62,55,-100,100,75,42,30.76,30.63,6,2,13,0.00
2013-8-26,84,66,53,65,60,53,100,84,52,30.71,30.52,6,2,17,0.00
2013-8-27,83,66,57,71,63,57,100,90,63,30.55,30.45,5,2,16,0.00
2013-8-28,88,80,70,71,69,67,91,70,55,30.42,30.36,6,3,18,0.00
2013-8-29,88,77,69,73,70,66,99,80,61,30.39,30.32,7,2,17,0.04
2013-8-30,88,75,66,73,69,66,100,85,58,30.43,30.32,6,3,18,0.04
2013-8-31,88,74,66,72,69,66,100,87,57,30.37,30.25,5,2,13,0.00
2013-9-1,85,70,66,73,67,-100,100,92,64,30.31,30.22,4,2,14,1.51
2013-9-2,87,73,65,72,68,65,100,86,59,30.32,30.23,5,2,15,0.15
2013-9-3,83,71,61,69,65,61,100,85,54,30.39,30.27,5,2,16,0.33
2013-9-4,88,70,59,67,63,59,100,83,45,30.51,30.39,3,2,11,0.05
2013-9-5,85,68,57,68,61,57,100,83,47,30.55,30.48,5,2,13,0.00
2013-9-6,86,68,54,65,60,54,100,81,41,30.56,30.45,4,2,13,0.00
2013-9-7,85,67,55,68,62,55,100,85,47,30.52,30.39,5,2,16,0.00
2013-9-8,85,68,59,70,62,-100,100,85,57,30.41,30.34,5,2,15,0.00
2013-9-9,87,71,60,69,65,60,100,82,50,30.53,30.41,8,3,18,0.00
2013-9-10,87,74,61,67,65,61,100,77,45,30.63,30.52,8,3,17,0.00
2013-9-11,91,72,62,70,66,62,100,84,48,30.63,30.48,5,2,15,0.00
2013-9-12,84,71,64,72,67,64,100,90,66,30.52,30.28,6,2,34,0.81
2013-9-13,78,66,53,65,59,50,100,81,41,30.32,30.23,5,2,53,0.91
2013-9-14,79,60,47,58,53,47,100,81,43,30.46,30.32,4,2,12,0.01
2013-9-15,78,60,50,62,54,-100,100,85,50,30.56,30.46,6,2,16,0.00
2013-9-16,83,65,53,64,59,53,100,84,50,30.55,30.47,5,2,23,0.00
2013-9-17,73,63,56,61,57,54,100,82,53,30.64,30.54,7,4,18,0.00
2013-9-18,61,59,55,57,55,52,95,87,81,30.61,30.55,4,3,8,0.00
2013-9-19,83,68,59,67,62,59,100,85,55,30.55,30.45,3,2,12,0.00
2013-9-20,86,69,59,67,63,59,100,84,43,30.47,30.29,4,2,10,0.00
2013-9-21,67,63,59,66,62,59,100,99,96,30.30,30.12,6,2,85,0.72
2013-9-22,76,61,51,61,53,-100,100,81,50,30.29,30.15,7,2,17,0.07
2013-9-23,82,60,45,60,54,45,100,83,43,30.41,30.29,3,2,69,0.01
2013-9-24,82,64,50,63,57,50,100,82,42,30.44,30.26,8,3,19,0.00
2013-9-25,66,61,58,63,60,58,100,97,90,30.30,30.22,5,2,60,0.43
2013-9-26,78,62,56,63,58,56,100,90,49,30.41,30.26,6,2,15,0.02
2013-9-27,79,61,52,59,55,52,100,85,45,30.53,30.41,3,2,13,0.00
2013-9-28,75,62,50,58,55,50,100,81,47,30.60,30.49,4,2,9,0.00
2013-9-29,76,60,50,59,52,-100,100,79,47,30.52,30.38,4,2,13,0.00
2013-9-30,78,64,54,60,56,49,100,80,36,30.45,30.34,4,2,13,0.00
2013-10-1,61,59,58,59,58,57,100,95,90,30.50,30.44,2,1,4,0.00
2013-10-2,82,62,52,63,57,52,100,87,44,30.56,30.45,4,1,11,0.04
2013-10-3,84,64,54,64,59,54,100,86,44,30.52,30.42,4,2,59,0.04
2013-10-4,86,66,55,64,60,55,100,85,39,30.55,30.45,5,2,10,0.00
2013-10-5,84,67,56,66,60,56,100,81,42,30.54,30.39,7,3,15,0.00
2013-10-6,82,68,58,65,60,57,100,80,49,30.43,30.25,11,5,29,0.00
2013-10-7,69,59,48,64,55,48,100,87,57,30.41,30.19,11,3,23,0.91
2013-10-8,73,54,42,52,47,42,100,80,41,30.55,30.41,6,3,15,0.03
2013-10-9,74,55,43,55,49,43,100,83,46,30.57,30.45,9,2,19,0.00
2013-10-10,74,58,45,52,49,45,100,78,42,30.50,30.40,7,2,22,0.00
2013-10-11,78,59,44,57,51,44,100,81,38,30.42,30.33,6,2,18,0.00
2013-10-12,72,60,50,60,56,50,100,88,60,30.45,30.37,4,1,12,0.00
2013-10-13,75,64,59,63,58,-100,99,84,62,30.57,30.45,7,3,16,0.00
2013-10-14,74,63,56,61,58,55,100,85,60,30.60,30.48,6,3,17,0.00
2013-10-15,72,60,51,58,56,51,100,85,59,30.55,30.40,7,3,13,0.00
2013-10-16,73,61,51,59,55,51,100,83,53,30.44,30.31,5,2,13,0.00
2013-10-17,75,62,55,65,59,52,100,93,72,30.35,30.19,4,2,20,0.04
2013-10-18,71,56,44,52,48,44,100,77,42,30.39,30.28,8,2,14,0.01
2013-10-19,65,55,49,55,50,46,100,85,50,30.32,30.22,4,2,16,0.00
2013-10-20,70,47,36,46,36,-100,100,74,27,30.42,30.31,6,2,13,0.00
2013-10-21,70,51,36,51,43,36,100,79,37,30.48,30.32,7,2,13,0.00
2013-10-22,71,54,48,51,48,43,100,84,36,30.36,30.18,6,2,23,0.00
2013-10-23,53,47,37,50,38,28,99,73,51,30.38,30.11,13,5,33,0.00
2013-10-24,53,40,29,38,33,28,100,77,49,30.49,30.38,8,2,19,0.00
2013-10-25,50,38,29,37,27,24,95,68,39,30.70,30.49,8,3,23,0.01
2013-10-26,63,40,22,38,28,22,100,69,26,30.66,30.41,4,2,11,0.01
2013-10-27,69,55,46,51,40,-100,84,62,39,30.46,30.38,8,2,20,0.00
2013-10-28,62,53,46,55,49,-100,100,90,68,30.60,30.46,3,2,8,0.04
2013-10-29,74,57,49,54,49,43,100,79,35,30.67,30.56,5,2,11,0.01
2013-10-30,78,60,52,55,52,48,95,76,40,30.63,30.50,4,2,15,0.00
2013-10-31,65,59,52,60,54,51,100,84,65,30.53,30.17,12,6,35,0.00
2013-11-1,78,65,54,60,53,44,96,68,38,30.17,30.01,13,5,30,0.12
2013-11-2,59,50,43,47,41,36,94,74,53,30.36,30.13,12,3,31,0.01
2013-11-3,60,46,36,39,34,-100,97,69,38,30.64,30.36,10,3,20,0.01
2013-11-4,60,45,32,34,30,26,97,61,30,30.78,30.64,8,5,22,0.00
2013-11-5,66,48,37,36,31,25,86,55,23,30.82,30.69,6,4,12,0.00
2013-11-6,68,56,46,52,47,36,94,75,50,30.74,30.47,11,6,23,0.00
2013-11-7,57,49,37,55,44,30,100,85,63,30.53,30.36,9,3,25,0.06
2013-11-8,54,41,32,30,25,19,80,56,27,30.64,30.53,8,3,20,0.02
2013-11-9,55,40,26,29,24,-100,95,60,29,30.65,30.53,5,2,10,0.00
2013-11-10,66,50,34,37,30,21,82,49,25,30.60,30.51,13,4,27,0.00
2013-11-11,69,45,27,29,23,15,93,50,15,30.64,30.48,4,2,11,0.00
2013-11-12,51,37,24,39,27,14,91,68,48,30.79,30.43,7,3,21,0.01
2013-11-13,43,29,18,20,18,14,92,65,34,30.85,30.76,10,4,21,0.01
2013-11-14,63,38,18,23,17,8,99,55,12,30.76,30.58,5,2,14,0.00
2013-11-15,47,38,27,45,31,19,100,78,46,30.63,30.50,3,2,11,0.11
2013-11-16,66,52,44,54,47,-100,100,89,62,30.58,30.47,6,2,16,0.09
2013-11-17,66,59,55,58,55,51,100,88,70,30.51,30.23,12,7,28,0.21
2013-11-18,66,56,43,57,41,27,100,62,28,30.41,30.21,8,4,29,0.18
2013-11-19,55,42,33,29,25,22,74,52,28,30.51,30.41,9,3,61,0.01
2013-11-20,55,42,34,27,24,21,67,50,29,30.71,30.50,8,5,23,0.00
2013-11-21,55,45,35,50,39,26,100,80,55,30.76,30.66,7,3,11,0.00
2013-11-22,66,56,49,58,54,49,100,92,70,30.69,30.49,6,2,13,0.03
2013-11-23,55,44,31,55,40,-100,100,87,64,30.58,30.47,7,4,22,0.04
2013-11-24,38,27,20,21,11,4,72,53,27,30.76,30.58,10,4,22,0.01
2013-11-25,41,29,17,23,10,4,79,48,24,30.75,30.56,5,2,13,0.00
2013-11-26,44,39,32,44,38,23,100,97,68,30.56,30.01,7,2,20,2.15
2013-11-27,42,30,24,42,27,17,100,89,75,30.50,30.01,8,5,26,0.22
2013-11-28,47,30,16,27,22,16,99,75,43,30.73,30.50,5,2,15,0.11
2013-11-29,56,34,22,29,25,22,100,74,32,30.84,30.73,7,2,12,0.05
2013-11-30,51,37,30,25,21,-100,78,56,31,30.86,30.64,6,4,15,0.00
2013-12-1,61,38,23,32,27,23,100,69,31,30.64,30.35,7,2,17,0.00
2013-12-2,57,42,32,39,35,29,95,77,42,30.35,30.11,3,2,8,0.00
2013-12-3,59,49,40,49,44,38,100,85,65,30.25,30.16,7,3,17,0.02
2013-12-4,69,56,47,54,50,46,99,84,55,30.38,30.25,7,3,17,0.01
2013-12-5,74,60,49,61,56,49,100,88,51,30.41,30.30,7,3,16,0.03
2013-12-6,70,63,48,64,61,48,100,93,69,30.42,30.25,10,4,23,0.50
2013-12-7,49,40,36,49,37,-100,100,94,85,30.65,30.40,10,4,21,0.26
2013-12-8,42,39,36,40,38,35,100,95,84,30.63,30.48,10,6,23,0.26
2013-12-9,51,44,36,50,43,36,100,98,88,30.48,30.36,5,2,13,0.31
2013-12-10,44,36,27,44,33,24,100,91,75,30.64,30.25,9,3,24,0.58
2013-12-11,52,34,19,29,22,13,100,68,27,30.72,30.58,6,2,19,0.01
2013-12-12,41,31,23,23,17,10,81,60,29,30.73,30.63,8,3,20,0.00
2013-12-13,51,33,17,25,17,11,99,60,20,30.66,30.50,5,2,9,0.00
2013-12-14,43,40,36,42,33,-100,100,82,49,30.52,30.12,9,4,18,0.32
2013-12-15,43,34,28,43,33,27,100,94,85,30.43,30.08,8,4,25,0.06
2013-12-16,57,37,24,32,28,24,100,75,30,30.49,30.38,5,2,10,0.01
2013-12-17,60,42,27,34,30,24,100,68,33,30.46,30.25,17,4,44,0.01
2013-12-18,50,36,27,23,15,6,79,48,16,30.60,30.43,6,3,26,0.00
2013-12-19,60,40,23,30,21,13,74,49,25,30.61,30.49,3,1,6,0.00
2013-12-20,68,50,34,41,30,22,69,48,27,30.53,30.40,7,3,19,0.00
2013-12-21,67,59,49,61,52,-100,91,81,69,30.44,30.26,13,7,33,0.00
2013-12-22,67,59,54,61,57,53,100,94,72,30.40,30.24,13,6,33,2.29
2013-12-23,56,45,33,56,44,32,100,95,82,30.56,30.36,7,4,21,0.96
2013-12-24,34,29,19,34,23,16,99,78,61,30.70,30.55,6,3,23,0.01
2013-12-25,44,28,16,21,15,10,100,66,26,30.73,30.60,6,2,14,0.00
2013-12-26,50,33,20,25,21,15,97,65,32,30.66,30.57,8,2,17,0.00
2013-12-27,51,33,22,28,23,16,100,72,25,30.75,30.64,6,2,14,0.00
2013-12-28,44,32,22,39,26,-100,100,83,49,30.72,30.42,7,2,16,0.27
2013-12-29,48,42,38,45,40,36,100,92,79,30.42,30.15,7,4,22,0.43
2013-12-30,43,38,34,40,35,31,100,90,75,30.47,30.31,5,3,21,0.01
2013-12-31,42,32,25,32,24,19,100,74,43,30.66,30.45,7,2,25,0.00
2014-1-1,50,33,22,29,24,20,100,72,35,30.66,30.43,8,2,19,0.00
2014-1-2,41,32,19,41,30,16,100,93,82,30.43,30.00,21,4,45,0.07